This is the latest recevied weather packets stored in our database for station/object G1SCQ. If no packets are shown the sender has not sent any weather packets the latest 10 day(s).
| Time | Temp. | Humidity | Pressure | Rain* | Wind** | Luminosity | Snow |
|---|---|---|---|---|---|---|---|
| 1777541765 | 16.67° C | 48% | 1025.2 hPa | 0 mm | - | 465 W/m² | - |
| 1777541224 | 17.78° C | 47% | 1025.1 hPa | 0 mm | - | 446 W/m² | - |
| 1777540684 | 17.78° C | 48% | 1025.2 hPa | 0 mm | - | 426 W/m² | - |
| 1777540145 | 16.11° C | 49% | 1025.4 hPa | 0 mm | - | 410 W/m² | - |
| 1777539604 | 16.11° C | 50% | 1025.4 hPa | 0 mm | - | 392 W/m² | - |
| 1777539245 | 16.11° C | 50% | 1025.5 hPa | 0 mm | - | 379 W/m² | - |
| 1777538704 | 15.56° C | 51% | 1025.6 hPa | 0 mm | - | 358 W/m² | - |
| 1777538164 | 15° C | 53% | 1025.5 hPa | 0 mm | - | 338 W/m² | - |
| 1777537625 | 14.44° C | 54% | 1025.5 hPa | 0 mm | - | 326 W/m² | - |
| 1777537084 | 13.89° C | 58% | 1025.3 hPa | 0 mm | - | 233 W/m² | - |
| 1777536544 | 13.33° C | 60% | 1025.8 hPa | 0 mm | - | 103 W/m² | - |
| 1777536004 | 12.78° C | 63% | 1025.8 hPa | 0 mm | - | 56 W/m² | - |
| 1777535644 | 12.78° C | 64% | 1026.1 hPa | 0 mm | - | 41 W/m² | - |
| 1777535104 | 12.22° C | 65% | 1026 hPa | 0 mm | - | 40 W/m² | - |
| 1777534564 | 11.67° C | 66% | 1026.1 hPa | 0 mm | - | 39 W/m² | - |
| 1777534024 | 11.67° C | 68% | 1026.2 hPa | 0 mm | - | 37 W/m² | - |
| 1777533484 | 11.67° C | 69% | 1026 hPa | 0 mm | - | 36 W/m² | - |
| 1777532944 | 11.11° C | 69% | 1026.4 hPa | 0 mm | - | 36 W/m² | - |
| 1777532404 | 10.56° C | 72% | 1026.2 hPa | 0 mm | - | 35 W/m² | - |
| 1777532044 | 10.56° C | 73% | 1026.2 hPa | 0 mm | - | 34 W/m² | - |
| 1777531504 | 10° C | 75% | 1026.3 hPa | 0 mm | - | 33 W/m² | - |
| 1777530964 | 10° C | 76% | 1026.3 hPa | 0 mm | - | 32 W/m² | - |
* Rain latest hour (hover to see other rain measurements)
** Current wind speed in m/s (hover to see current wind gust speed)